Regional Weather Roundup
Issued by NWS

Home | Current Version | Previous Version | Graphics & Text | Print | Product List | Glossary On
Versions: 1 2 3 4 5 6 7 8 9 10 11 12 13 14 15 16 17 18 19 20 21 22 23 24 25 26 27 28 29 30 31 32 33 34 35 36 37 38 39 40 41 42 43 44 45 46 47 48 49 50
705
ASUS43 KLSX 201657
RWRMO

WEATHER SUMMARY FOR MISSOURI
NATIONAL WEATHER SERVICE SPRINGFIELD MO
1200 PM CDT WED SEP 20 2017

NOTE: "FAIR" INDICATES FEW OR NO CLOUDS BELOW 12,000 FEET WITH NO
       SIGNIFICANT WEATHER AND/OR OBSTRUCTIONS TO VISIBILITY.
       CURRENT SKY AND/OR WEATHER CONDITIONS ARE NOT AVAILABLE FOR
       CHILLICOTHE AND FARMINGTON.

MOZ001>031-035>038-043-044-053-054-201800-
...NORTHERN AND WESTERN MISSOURI...

CITY           SKY/WX    TMP DP  RH WIND       PRES   REMARKS
KANSAS CTY INT PTSUNNY   83  72  69 SW15      29.81R
LEE`S SUMMIT   PTSUNNY   85  73  67 S15       29.83R HX  91
ST JOSEPH      MOSUNNY   83  71  67 S12       29.78S
CHILLICOTHE      N/A     84  73  69 S10       29.82S HX  90

$$
MOZ066>068-077>081-088>096-101>105-201800-
...SOUTHWEST MISSOURI...

CITY           SKY/WX    TMP DP  RH WIND       PRES   REMARKS
SPRINGFIELD    SUNNY     87  74  64 SW14      29.91S HX  95
JOPLIN         MOSUNNY   87  75  67 S22       29.87F HX  96
BRANSON        MOSUNNY   90  68  48 SW8G16    29.94F HX  93

$$
MOZ032>034-039>042-045>050-055>058-069>072-201800-
...CENTRAL MISSOURI...

CITY           SKY/WX    TMP DP  RH WIND       PRES   REMARKS
COLUMBIA       NOT AVBL
JEFFERSON CITY SUNNY     86  72  62 S9        29.88S HX  92
ROLLA          SUNNY     87  71  58 SW10      29.94S HX  93
SEDALIA        SUNNY     89  74  60 S15G22    29.87S HX  98
WARRENSBURG    MOSUNNY   82  72  69 S13G21    29.83S

$$
MOZ051-052-059>065-201800-
...EAST CENTRAL MISSOURI...

CITY           SKY/WX    TMP DP  RH WIND       PRES   REMARKS
ST LOUIS INTL  PTSUNNY   89  72  56 SW13      29.92F HX  96

$$
MOZ072>076-082>087-097>100-106>115-201800-
...SOUTH CENTRAL AND SOUTHEAST MISSOURI...

CITY           SKY/WX    TMP DP  RH WIND       PRES   REMARKS
CAPE GIRARDEAU MOSUNNY   88  71  57 SW15G22   29.96F HX  94
POPLAR BLUFF   SUNNY     88  72  58 SW17      29.95F HX  94
WEST PLAINS    SUNNY     87  70  56 S10       29.97F HX  92

$$



USA.gov is the U.S. government's official web portal to all federal, state and local government web resources and services.